Waarnemingen

Advertentie
Mijn weer
Tännäs, Zweden (2308): temperatuur & dauwpunt: 12.01.2020 14:00:00 - 18.01.2020 14:00:00 (CET)Tännäs, Zweden (2308): windsnelheid & windstoten: 12.01.2020 14:00:00 - 18.01.2020 14:00:00 (CET)Tännäs, Zweden (2308): windrichting: 12.01.2020 14:00:00 - 18.01.2020 14:00:00 (CET)Tännäs, Zweden (2308): luchtdruk: 12.01.2020 14:00:00 - 18.01.2020 14:00:00 (CET)Tännäs, Zweden (2308): zicht: 12.01.2020 14:00:00 - 18.01.2020 14:00:00 (CET)Tännäs, Zweden (2308): neerslag: 12.01.2020 14:00:00 - 18.01.2020 14:00:00 (CET)
Datum & Tijd tt [°C] td [°C] ff [km/u] ff [kn] fx [km/u] fx [kn] dd ppp [hPa] vv [km] rr [mm]
18.01.2020 14:00:00 0,2 -3,6 6 3 12 7 WNW 1001,2 50 0,0
18.01.2020 13:00:00 0,4 -3,7 4 2 10 5 WNW 1000,9 50 0,0
18.01.2020 12:00:00 -0,1 -4,4 0 0 16 9 N 1000,8 50 0,0
18.01.2020 11:00:00 0,0 -3,5 6 4 16 9 W 1000,9 50 0,0
18.01.2020 10:00:00 -0,3 -3,7 4 2 11 6 NW 1000,9 50 0,0
18.01.2020 09:00:00 -0,1 -3,6 2 1 8 4 Z 1000,6 50 0,0
18.01.2020 08:00:00 0,5 -3,2 4 2 10 5 ZW 1000,8 50 0,0
18.01.2020 07:00:00 -0,1 -3,5 2 1 8 4 WZW 1001,0 50 0,0
18.01.2020 06:00:00 -0,1 -3,1 0 0 9 5 N 1001,2 50 0,0
18.01.2020 05:00:00 0,8 -2,6 5 3 10 6 Z 1001,6 50 0,0
18.01.2020 04:00:00 1,0 -2,1 4 2 13 7 ZZW 1002,3 50 0,0
18.01.2020 03:00:00 1,2 -2,2 4 2 9 5 Z 1002,8 50 0,0
18.01.2020 02:00:00 1,2 -2,0 2 1 13 7 ZO 1003,0 50 0,0
18.01.2020 01:00:00 1,2 -1,9 6 3 15 8 Z 1003,3 50 0,0
18.01.2020 00:00:00 1,1 -1,8 5 3 16 9 Z 1003,9 50 0,0
17.01.2020 23:00:00 1,4 -1,7 7 4 17 9 Z 1004,2 50 0,0
17.01.2020 22:00:00 1,4 -1,8 4 2 13 7 ZZW 1004,9 50 0,0
17.01.2020 21:00:00 1,5 -1,9 5 3 22 12 ZZW 1005,2 50 0,0
17.01.2020 20:00:00 2,1 -1,7 7 4 16 8 Z 1005,1 50 0,0
17.01.2020 19:00:00 1,5 -1,6 6 3 13 7 Z 1005,4 50 0,0
17.01.2020 18:00:00 1,8 -1,6 5 3 14 7 Z 1005,9 50 0,0
17.01.2020 17:00:00 2,0 -1,8 5 3 15 8 ZZW 1006,3 50 0,0
17.01.2020 16:00:00 1,7 -2,1 6 3 23 13 Z 1006,5 50 0,0
17.01.2020 15:00:00 1,9 -1,5 8 4 21 12 ZZW 1006,5 50 0,0
17.01.2020 14:00:00 1,8 -1,5 9 5 31 17 ZW 1007,2 50 0,0
17.01.2020 13:00:00 1,6 -1,5 11 6 24 13 ZW 1007,3 50 0,0
17.01.2020 12:00:00 1,6 -2,2 7 4 28 15 ZZW 1007,2 50 0,0
17.01.2020 11:00:00 1,2 -2,9 10 5 29 16 Z 1007,1 50 0,0
17.01.2020 10:00:00 1,2 -2,7 9 5 28 15 ZZW 1007,1 50 0,0
17.01.2020 09:00:00 0,8 -3,1 7 4 22 12 ZW 1006,9 50 0,0
17.01.2020 08:00:00 0,9 -3,0 10 5 36 20 ZZW 1007,4 50 0,0
17.01.2020 07:00:00 0,8 -3,1 10 6 22 12 Z 1007,9 50 0,0
17.01.2020 06:00:00 0,1 -3,6 9 5 23 12 ZZO 1008,6 6 0,0
17.01.2020 05:00:00 0,1 -4,3 9 5 28 15 ZZW 1009,3 50 0,0
17.01.2020 04:00:00 0,0 -5,4 8 4 22 12 ZZW 1010,3 50 0,0
17.01.2020 03:00:00 -0,1 -5,1 8 4 23 12 ZW 1010,9 14 0,0
17.01.2020 02:00:00 -0,6 -7,4 6 3 14 8 ZZW 1011,2 50 0,0
17.01.2020 01:00:00 0,3 -7,0 4 2 25 13 ZO 1011,5 50 0,0
17.01.2020 00:00:00 0,1 -7,2 9 5 23 12 ZW 1011,9 50 0,0
16.01.2020 23:00:00 -0,2 -7,2 10 5 24 13 ZW 1011,1 50 0,0
16.01.2020 22:00:00 0,2 -6,7 9 5 28 15 WZW 1011,2 50 0,0
16.01.2020 21:00:00 -0,9 -6,9 4 2 19 10 ONO 1011,0 50 0,0
16.01.2020 20:00:00 -1,1 -6,8 6 3 14 8 OZO 1010,3 50 0,0
16.01.2020 19:00:00 -0,8 -5,6 3 2 11 6 O 1009,2 50 0,0
16.01.2020 18:00:00 0,7 -5,3 5 3 23 12 WZW 1008,2 50 0,0
16.01.2020 17:00:00 0,7 -4,7 8 4 31 17 ZW 1007,2 50 0,0
16.01.2020 16:00:00 0,8 -4,8 9 5 31 17 ZW 1006,4 50 0,0
16.01.2020 15:00:00 1,6 -4,3 12 6 31 17 ZZW 1005,2 50 0,0
16.01.2020 14:00:00 1,9 -4,2 12 7 39 21 ZW 1004,4 50 0,0
16.01.2020 13:00:00 2,2 -4,3 11 6 40 21 ZW 1003,5 50 0,0
16.01.2020 12:00:00 0,9 -4,9 8 4 21 11 ZZW 1003,0 50 0,0
16.01.2020 11:00:00 -0,3 -4,5 5 3 15 8 NW 1001,9 50 0,0
16.01.2020 10:00:00 -1,7 -5,2 3 1 12 6 NO 1000,9 50 0,0
16.01.2020 09:00:00 -0,8 -4,5 4 2 18 10 ZZW 999,3 50 0,0
16.01.2020 08:00:00 -0,7 -4,6 5 3 22 12 ZW 998,2 50 0,0
16.01.2020 07:00:00 -0,2 -3,6 10 5 28 15 ZW 997,3 50 0,0
16.01.2020 06:00:00 -0,5 -4,2 7 4 24 13 ZZW 996,7 50 0,0
16.01.2020 05:00:00 -0,9 -4,6 6 4 18 10 ZW 995,7 50 0,0
16.01.2020 04:00:00 -1,3 -5,9 3 2 22 12 ZZW 995,5 50 0,0
16.01.2020 03:00:00 -1,1 -5,5 9 5 23 13 ZZW 995,0 50 0,0
16.01.2020 02:00:00 -2,0 -6,2 6 3 19 10 ZZW 995,0 50 0,0
16.01.2020 01:00:00 -2,2 -6,4 5 3 16 9 WNW 994,7 50 0,0
16.01.2020 00:00:00 -3,6 -7,4 6 4 21 12 Z 994,5 50 0,0
15.01.2020 23:00:00 -3,5 -7,5 5 3 14 8 OZO 994,4 50 0,0
15.01.2020 22:00:00 -3,2 -7,3 3 2 15 8 WZW 993,9 50 0,0
15.01.2020 21:00:00 -3,4 -7,5 5 3 16 9 ZW 993,4 50 0,0
15.01.2020 20:00:00 -3,9 -8,2 3 1 16 9 ZZW 993,4 50 0,0
15.01.2020 19:00:00 -3,3 -8,0 7 4 21 12 Z 993,0 50 0,0
15.01.2020 18:00:00 -3,0 -7,9 6 4 19 11 ZZO 992,4 50 0,0
15.01.2020 17:00:00 -2,3 -6,8 6 3 22 12 O 991,2 50 0,0
15.01.2020 16:00:00 -2,0 -7,3 3 2 21 12 NNW 990,0 50 0,0
15.01.2020 15:00:00 -1,1 -7,2 5 3 30 16 WZW 988,8 50 0,0
15.01.2020 14:00:00 -0,5 -6,5 8 5 25 14 ZW 987,7 50 0,0
15.01.2020 13:00:00 0,4 -6,5 7 4 26 14 WZW 986,4 50 0,0
15.01.2020 12:00:00 0,4 -5,6 9 5 24 13 WNW 984,9 50 0,0
15.01.2020 11:00:00 0,0 -4,8 8 4 26 14 WZW 983,5 50 0,0
15.01.2020 10:00:00 -0,2 -4,5 9 5 25 13 W 982,2 50 0,0
15.01.2020 09:00:00 -1,6 -5,1 4 2 14 8 WZW 981,1 50 0,0
15.01.2020 08:00:00 -1,2 -3,7 5 3 13 7 Z 980,4 11 0,3
15.01.2020 07:00:00 -1,1 -3,9 4 2 18 10 ZO 980,3 1,7 0,3
15.01.2020 06:00:00 -1,2 -3,2 9 5 23 13 O 980,5 1,6 0,1
15.01.2020 05:00:00 -1,2 -3,9 9 5 24 13 OZO 981,7 3,6 0,0
15.01.2020 04:00:00 -1,2 -4,2 10 5 27 15 OZO 983,2 9 0,0
15.01.2020 03:00:00 -1,6 -4,9 7 4 24 13 Z 984,8 8 0,0
15.01.2020 02:00:00 -1,7 -5,5 6 4 19 10 Z 986,1 48 0,0
15.01.2020 01:00:00 -1,8 -6,2 10 5 28 15 Z 986,8 50 0,0
15.01.2020 00:00:00 -2,2 -6,6 8 5 23 12 ZZW 987,5 50 0,0
14.01.2020 23:00:00 -3,0 -6,5 3 2 16 9 O 988,7 50 0,0
14.01.2020 22:00:00 -2,2 -6,2 5 3 13 7 O 988,4 50 0,0
14.01.2020 21:00:00 -3,0 -6,1 3 2 13 7 ONO 988,0 50 0,0
14.01.2020 20:00:00 -2,6 -5,7 3 2 15 8 NNO 987,4 50 0,0
14.01.2020 19:00:00 -1,6 -5,3 4 2 13 7 N 986,9 50 0,0
14.01.2020 18:00:00 -1,0 -5,4 4 2 13 7 ZZW 986,3 50 0,0
14.01.2020 17:00:00 -0,3 -4,0 3 2 21 11 WZW 985,8 50 0,0
14.01.2020 16:00:00 0,1 -3,6 3 2 17 9 WNW 985,2 32 -
14.01.2020 15:00:00 -0,5 -4,2 5 3 25 13 Z 985,1 50 0,0
14.01.2020 14:00:00 -0,7 -3,9 11 6 31 17 Z 984,7 50 0,0
14.01.2020 13:00:00 -0,7 -3,4 11 6 34 18 Z 984,6 10 -
14.01.2020 12:00:00 -0,5 -3,5 11 6 33 18 ZZW 984,7 50 0,0
14.01.2020 11:00:00 -1,1 -3,1 16 9 37 20 Z 985,0 5 0,3
14.01.2020 10:00:00 -1,2 -2,9 13 7 34 18 Z 985,8 1,0 0,7
14.01.2020 09:00:00 -1,1 -3,6 10 5 26 14 ZZO 986,9 1,6 0,2
14.01.2020 08:00:00 -0,8 -3,8 13 7 38 20 Z 988,4 9 0,0
14.01.2020 07:00:00 -1,0 -3,7 15 8 40 22 Z 989,6 4,0 0,0
14.01.2020 06:00:00 -0,8 -4,3 16 9 35 19 Z 990,7 50 0,0
14.01.2020 05:00:00 -1,6 -4,6 14 8 29 16 Z 992,7 47 0,0
14.01.2020 04:00:00 -2,4 -5,5 10 5 21 12 Z 994,3 39 -
14.01.2020 03:00:00 -3,3 -6,4 11 6 34 19 Z 996,1 50 0,0
14.01.2020 02:00:00 -4,6 -7,5 8 4 22 12 ZZW 998,2 50 0,0
14.01.2020 01:00:00 -5,2 -8,9 7 4 22 12 Z 999,1 50 0,0
14.01.2020 00:00:00 -5,7 -9,4 8 5 25 14 Z 1000,2 50 0,0
13.01.2020 23:00:00 -4,7 -9,9 5 3 18 10 ZZO 999,8 50 0,0
13.01.2020 22:00:00 -3,9 -10,1 6 4 18 10 WZW 1001,0 50 0,0
13.01.2020 21:00:00 -3,6 -10,0 6 4 24 13 Z 1001,2 50 0,0
13.01.2020 20:00:00 -2,7 -9,6 7 4 20 11 ZW 1000,9 50 0,0
13.01.2020 19:00:00 -3,0 -10,3 5 3 16 9 ZO 1000,9 50 0,0
13.01.2020 18:00:00 -2,5 -9,4 5 3 16 9 WNW 1000,9 50 0,0
13.01.2020 17:00:00 -2,6 -9,3 8 4 22 12 Z 1000,7 50 0,0
13.01.2020 16:00:00 -2,7 -9,0 9 5 25 13 ZW 1000,9 50 0,0
13.01.2020 15:00:00 -2,9 -9,2 9 5 26 14 ZW 1000,6 50 0,0
13.01.2020 14:00:00 -2,7 -9,0 11 6 24 13 ZW 1000,6 50 0,0
13.01.2020 13:00:00 -2,9 -9,4 9 5 24 13 ZW 1000,7 50 0,0
13.01.2020 12:00:00 -2,8 -9,7 7 4 18 10 ZZW 1001,1 50 0,0
13.01.2020 11:00:00 -3,0 -9,5 8 4 16 9 ZZW 1000,6 50 0,0
13.01.2020 10:00:00 -3,3 -10,0 3 2 16 9 Z 1001,0 50 0,0
13.01.2020 09:00:00 -3,4 -9,8 7 4 21 11 ZW 1000,5 50 0,0
13.01.2020 08:00:00 -3,4 -10,1 4 2 20 11 W 1000,6 50 0,0
13.01.2020 07:00:00 -5,1 -11,2 7 4 15 8 Z 1001,0 50 0,0
13.01.2020 06:00:00 -3,9 -10,9 5 3 19 10 W 1000,4 50 0,0
13.01.2020 05:00:00 -3,6 -10,0 5 3 21 12 NNW 1000,0 50 0,0
13.01.2020 04:00:00 -4,5 -10,9 5 3 19 10 W 1000,6 50 0,0
13.01.2020 03:00:00 -3,9 -10,1 6 3 18 10 Z 1000,2 50 0,0
13.01.2020 02:00:00 -3,6 -10,0 8 4 25 14 WZW 999,7 50 0,0
13.01.2020 01:00:00 -4,1 -9,7 6 3 22 12 WZW 999,6 50 0,0
13.01.2020 00:00:00 -4,0 -9,8 5 3 20 11 ZW 998,9 50 0,0
12.01.2020 23:00:00 -2,6 -9,1 5 3 21 11 ZW 998,5 50 0,0
12.01.2020 22:00:00 -2,5 -9,0 9 5 31 17 ZZW 997,7 50 0,0
12.01.2020 21:00:00 -2,7 -9,2 11 6 25 13 ZZW 997,0 50 0,0
12.01.2020 20:00:00 -3,4 -9,6 4 2 14 7 WZW 997,5 50 0,0
12.01.2020 19:00:00 -5,3 -10,3 4 2 16 9 N 997,6 50 0,0
12.01.2020 18:00:00 -4,5 -10,1 4 2 15 8 N 997,9 50 0,0
12.01.2020 17:00:00 -4,3 -9,7 4 2 10 5 ONO 997,6 50 0,0
12.01.2020 16:00:00 -2,7 -9,8 3 1 22 12 NW 997,5 50 0,0
12.01.2020 15:00:00 -2,5 -10,1 3 2 14 8 W 997,7 50 0,0
12.01.2020 14:00:00 -1,9 -9,3 5 3 19 11 W 997,0 50 0,0

tt = temperatuur
td = dauwpunt
ff = windsnelheid
fx = windstoten
dd = windrichting
ppp = luchtdruk
vv = zicht
rr = neerslag

Weerstations in de omgeving